Wind_Speed
25 25 24 22 22 21 20 19 17 16 16 15 14 13 13 12 12 11 11 11 11 10 10 10 10 10 9 9 9 9 10 10 11 11 12 12 12 13 13 13 14 15 16 17
25 25 25 24 23 23 22 20 19 18 17 16 15 15 14 13 13 12 12 12 12 12 12 11 11 11 10 10 10 10 10 11 11 11 12 12 13 13 14 14 15 16 17 18
25 25 25 26 25 24 23 21 20 18 18 17 17 16 15 14 14 13 13 14 14 14 14 13 13 12 11 11 12 12 12 13 12 12 12 13 13 14 14 15 16 17 17 18
25 26 25 25 25 24 23 22 21 21 20 20 19 18 16 15 15 15 15 15 15 15 14 14 14 14 13 14 14 14 14 14 14 14 14 15 15 15 16 16 17 18 18 19
27 26 26 27 25 24 24 24 23 22 21 21 20 19 18 17 17 17 16 16 15 15 15 15 15 15 16 16 16 16 16 15 15 15 15 15 16 17 17 18 18 19 19 20
28 26 24 25 24 23 24 25 24 23 22 22 21 21 20 19 19 19 18 18 17 17 16 16 16 17 17 17 17 18 18 18 18 18 17 18 18 18 19 19 20 20 21 22
30 28 27 28 24 23 25 25 24 24 23 23 23 23 22 22 21 21 21 20 19 19 18 18 18 18 18 19 19 19 19 20 20 19 20 20 20 20 21 22 22 23 23 24
32 31 31 30 26 26 26 26 25 25 25 25 24 23 23 23 23 23 23 22 21 21 20 20 20 20 20 20 20 21 21 21 22 21 21 22 22 23 23 23 24 24 25 26
34 33 33 31 29 27 27 27 27 26 26 26 25 24 24 24 24 24 24 24 24 23 23 23 23 23 22 22 22 23 23 24 24 24 23 24 25 25 25 25 25 25 25 26
35 35 34 33 31 29 29 28 28 28 27 27 26 26 25 25 25 25 25 25 25 25 25 25 24 25 25 25 25 25 26 26 25 25 25 26 27 27 27 26 27 27 27 28
35 35 35 34 33 31 31 31 30 29 29 28 28 27 27 26 26 26 26 26 26 27 27 27 27 26 27 27 27 27 27 27 27 27 27 28 28 28 27 27 28 28 29 29
35 35 35 34 33 33 32 32 31 31 30 30 29 29 29 28 28 28 28 28 28 27 27 28 28 28 29 29 29 28 28 28 28 28 29 29 29 28 29 29 29 30 30 30
35 34 34 34 34 34 34 33 33 32 32 31 31 30 30 30 29 29 29 29 28 28 29 29 30 30 29 29 29 30 30 30 30 30 30 30 30 30 30 30 31 31 31 30
34 34 34 34 35 35 34 34 34 34 33 33 32 32 31 31 30 30 30 29 30 30 30 30 31 30 30 30 30 30 30 30 30 31 31 30 30 30 30 30 31 31 30 30
33 34 34 34 35 34 34 34 34 34 34 34 33 33 32 31 31 32 31 30 30 31 31 31 31 31 31 31 30 30 31 31 30 30 30 30 29 28 28 29 30 29 29 29
32 32 32 33 33 33 33 34 33 33 34 34 34 33 33 32 32 31 31 30 31 31 31 31 31 31 31 30 30 30 30 30 29 30 30 29 29 29 28 29 29 28 28 29
30 30 31 31 32 32 33 33 33 32 33 33 33 33 33 32 31 30 30 30 30 30 30 30 30 29 29 29 29 29 28 28 29 29 29 29 29 28 28 27 27 27 27 28
29 29 29 29 29 30 31 30 30 31 31 31 31 31 31 31 30 30 29 29 30 29 29 29 28 28 29 29 29 28 28 28 28 28 28 28 27 26 26 26 26 26 27 27
27 27 27 28 28 28 29 29 28 28 29 29 29 29 29 29 29 28 28 28 28 28 28 28 28 28 29 29 29 28 27 27 27 26 26 26 25 25 25 25 26 26 26 26
25 25 25 26 26 26 26 27 27 27 26 27 27 27 27 27 26 26 26 26 27 27 27 27 27 27 27 27 26 25 24 24 25 25 25 24 24 25 25 26 26 26 25 25
24 23 22 23 23 23 24 24 25 25 25 25 24 24 25 25 24 24 25 25 25 25 25 25 25 25 24 23 23 23 23 24 24 25 24 24 25 25 25 26 26 25 24 24
21 20 20 21 21 22 23 22 22 21 21 21 22 22 23 23 23 23 23 23 22 22 22 22 22 22 21 22 22 22 22 23 23 23 23 23 23 24 25 24 24 23 23 23
19 19 20 20 20 20 20 19 19 19 19 19 20 20 21 21 21 21 21 20 21 21 20 20 20 20 20 20 21 21 21 21 21 21 21 22 23 23 23 22 23 23 23 23
18 18 19 19 19 19 18 18 17 17 17 17 18 19 19 19 19 19 19 19 18 18 19 19 19 19 19 20 20 20 20 20 20 21 21 21 21 21 21 22 22 22 22 23
16 16 17 17 17 17 17 16 16 15 16 16 17 17 17 18 18 18 18 17 17 17 17 18 18 18 18 19 19 19 19 19 20 20 20 20 20 20 21 21 21 22 23 24
15 14 14 15 15 14 15 14 14 14 14 14 15 15 15 15 15 15 15 15 15 16 16 16 16 16 17 17 18 18 18 18 18 18 19 19 20 20 21 22 22 23 23 24
12 12 12 13 13 13 12 12 11 11 10 10 11 11 12 13 12 12 12 13 13 14 14 14 15 16 16 17 17 17 17 18 18 18 19 19 20 21 22 22 23 23 24 25
Wind_Direction
227 232 236 238 239 242 243 244 245 249 249 255 260 265 268 268 272 278 283 287 287 289 293 295 299 301 294 290 290 288 282 281 282 282 279 274 273 272 272 273 276 277 275 272
230 233 234 236 238 242 243 244 244 245 248 252 260 263 266 267 268 272 277 281 283 287 292 293 295 297 291 289 288 287 287 286 286 286 284 279 279 279 278 276 278 279 276 277
231 233 233 235 238 240 243 243 243 245 248 252 258 262 263 264 265 269 271 277 281 284 287 291 290 288 285 286 287 289 290 290 291 290 288 285 283 282 281 280 279 281 280 279
229 231 232 237 237 238 240 242 243 245 247 251 255 257 258 260 262 266 270 273 276 279 281 286 287 283 283 282 286 288 290 291 294 292 287 284 281 282 282 280 281 282 283 283
230 234 237 239 237 237 240 243 245 247 248 250 252 254 255 256 258 261 267 270 272 274 276 281 284 283 282 281 282 283 285 287 288 289 288 286 286 284 283 283 284 285 285 284
230 231 236 242 237 237 241 244 245 247 248 249 250 252 254 254 257 259 263 265 268 272 275 279 283 283 282 279 280 282 281 281 282 283 283 285 287 286 286 285 286 286 285 285
233 235 236 240 237 237 241 244 245 247 247 249 249 251 254 255 258 258 260 262 265 268 272 277 281 283 283 284 283 282 282 280 280 280 281 283 286 286 287 286 285 285 284 284
235 237 240 241 240 240 243 245 247 249 249 249 251 253 255 256 257 258 260 260 262 265 270 274 278 282 283 285 285 283 281 280 281 280 280 283 285 286 286 286 285 283 283 283
235 237 241 243 244 244 245 247 248 250 250 250 251 253 255 255 256 257 259 261 262 264 268 272 275 278 281 282 284 282 280 280 281 280 281 283 284 286 286 285 285 285 285 285
238 239 242 244 244 245 245 248 249 250 250 250 252 253 255 255 256 258 260 261 263 265 268 271 273 275 278 279 281 282 281 281 281 281 281 282 283 284 285 284 285 285 285 285
238 240 241 242 244 245 247 249 250 250 249 250 252 254 255 256 257 258 260 260 262 264 266 269 272 274 277 279 280 280 279 280 280 280 280 281 282 283 283 284 285 285 285 285
238 239 241 243 244 246 247 249 250 250 249 250 253 255 256 257 258 259 260 261 263 265 266 268 270 272 275 276 276 277 279 279 279 280 281 281 281 281 281 283 284 285 286 285
238 239 240 241 243 245 247 248 249 250 250 250 252 254 256 257 259 260 261 261 262 264 267 268 270 271 273 275 276 277 277 277 277 279 280 281 281 281 281 283 284 285 285 286
239 240 240 241 243 245 247 248 249 250 250 251 252 253 254 256 258 259 259 260 262 265 266 267 269 270 272 273 274 275 277 278 278 280 280 280 282 282 282 283 284 284 284 285
239 240 241 242 244 245 247 248 249 249 250 251 252 253 253 255 257 257 258 259 261 263 265 266 268 269 272 272 273 275 277 277 279 281 281 282 282 283 284 284 285 285 285 286
240 241 241 242 243 244 246 247 248 248 249 250 251 252 253 255 257 258 257 258 260 262 263 265 267 269 271 271 272 274 274 275 278 280 281 282 284 284 284 285 286 286 287 288
238 239 239 239 240 241 244 245 246 247 248 249 250 250 252 254 256 257 257 258 259 261 263 265 267 268 269 270 272 273 273 274 277 279 281 282 283 285 285 286 287 289 290 290
235 235 236 237 237 239 241 243 244 246 248 248 249 250 251 252 253 255 257 258 259 260 262 264 266 268 268 270 271 272 273 275 276 278 280 282 284 285 286 287 287 289 291 292
232 233 234 235 238 239 240 241 243 245 247 247 246 247 249 250 251 254 257 258 260 261 261 264 265 267 269 270 271 271 271 272 275 278 280 281 282 283 285 286 288 290 292 293
231 231 232 234 236 237 238 240 242 244 245 245 245 246 246 247 249 252 255 257 258 259 260 261 263 266 268 269 269 270 273 274 276 278 280 282 283 285 286 288 290 292 292 293
226 227 229 231 233 234 236 238 239 241 244 244 244 243 243 243 245 248 251 252 254 256 257 259 263 266 267 269 271 272 274 275 277 279 280 281 283 285 286 288 289 289 291 293
223 224 226 229 230 232 233 236 237 239 239 239 238 238 239 241 243 245 247 251 253 255 258 262 265 267 269 271 272 273 275 276 278 279 280 282 284 286 287 287 288 290 293 296
223 225 225 226 229 231 233 233 231 231 233 235 235 235 238 242 246 248 249 253 256 258 261 265 268 271 272 274 274 274 276 278 280 282 283 285 286 287 287 289 290 293 295 297
218 222 223 225 227 227 226 225 227 230 233 235 235 237 239 242 246 248 249 254 259 261 265 268 270 272 273 275 276 276 278 280 283 285 286 287 287 289 291 293 295 295 296 297
213 217 220 221 220 220 221 222 227 233 233 233 233 235 238 243 247 249 252 257 261 264 267 269 271 273 274 276 278 278 280 283 286 287 288 289 290 292 293 294 295 296 297 298
204 205 207 209 210 212 215 220 225 227 228 230 233 237 241 244 247 250 254 259 264 267 269 271 272 273 275 277 279 282 283 285 286 287 290 292 294 294 294 295 296 298 299 300
189 195 200 202 204 208 213 214 215 219 223 231 237 240 244 247 249 252 256 261 264 267 270 271 272 275 278 279 281 283 285 286 288 291 294 295 296 297 297 297 297 298 299 301
Height
5863 5865 5868 5871 5874 5876 5879 5882 5885 5886 5886 5887 5887 5887 5886 5886 5886 5886 5885 5884 5883 5882 5881 5880 5879 5878 5877 5876 5875 5874 5874 5873 5872 5871 5870 5870 5869 5869 5869 5869 5869 5868 5867 5867
5857 5860 5863 5866 5869 5871 5874 5876 5879 5880 5881 5882 5882 5883 5883 5883 5883 5883 5882 5881 5881 5880 5879 5878 5877 5875 5874 5874 5873 5872 5871 5870 5869 5868 5867 5866 5866 5866 5866 5865 5865 5864 5864 5863
5852 5855 5857 5861 5864 5866 5869 5871 5874 5876 5877 5877 5878 5879 5879 5879 5879 5879 5878 5878 5877 5877 5876 5875 5874 5873 5872 5871 5870 5869 5868 5867 5866 5865 5864 5864 5863 5863 5862 5861 5861 5860 5859 5858
5847 5850 5853 5857 5858 5861 5864 5866 5868 5870 5871 5872 5873 5874 5874 5875 5875 5875 5874 5874 5874 5873 5873 5872 5871 5870 5869 5868 5868 5867 5866 5865 5863 5862 5862 5861 5860 5859 5858 5857 5856 5856 5855 5854
5841 5844 5848 5850 5853 5856 5858 5860 5862 5864 5865 5866 5868 5869 5869 5870 5870 5870 5870 5870 5870 5870 5869 5868 5868 5867 5866 5865 5864 5863 5862 5861 5860 5859 5858 5857 5856 5855 5854 5853 5852 5851 5850 5849
5835 5839 5843 5845 5847 5850 5853 5854 5856 5857 5859 5860 5862 5864 5865 5865 5865 5865 5865 5865 5865 5865 5865 5864 5864 5863 5862 5861 5860 5859 5858 5857 5856 5855 5854 5854 5852 5851 5850 5849 5847 5846 5845 5843
5828 5832 5835 5836 5840 5844 5847 5848 5849 5851 5852 5854 5855 5857 5858 5859 5859 5860 5860 5860 5860 5860 5860 5860 5859 5858 5857 5856 5855 5854 5853 5852 5852 5850 5850 5849 5848 5846 5845 5843 5842 5840 5839 5837
5821 5825 5829 5829 5833 5836 5839 5840 5842 5844 5846 5847 5849 5850 5851 5852 5853 5854 5854 5855 5855 5855 5855 5855 5854 5853 5853 5851 5850 5849 5848 5847 5846 5845 5844 5844 5842 5841 5839 5838 5836 5834 5832 5831
5812 5817 5819 5822 5825 5828 5830 5833 5834 5836 5838 5840 5842 5843 5844 5845 5846 5847 5848 5848 5848 5849 5849 5849 5848 5848 5847 5846 5845 5843 5842 5841 5840 5839 5838 5837 5836 5834 5833 5831 5829 5828 5826 5824
5804 5807 5810 5814 5817 5820 5822 5824 5827 5829 5831 5833 5834 5836 5837 5838 5839 5840 5841 5842 5842 5842 5842 5842 5842 5841 5841 5840 5839 5837 5836 5835 5834 5832 5832 5830 5829 5827 5826 5824 5822 5821 5819 5817
5794 5798 5802 5804 5808 5811 5814 5816 5818 5821 5823 5825 5827 5828 5830 5831 5832 5833 5834 5834 5835 5835 5835 5835 5835 5835 5834 5833 5832 5831 5829 5828 5827 5826 5825 5823 5822 5820 5818 5817 5815 5813 5811 5810
5786 5789 5793 5796 5799 5802 5805 5807 5810 5812 5815 5817 5819 5820 5822 5823 5824 5825 5826 5827 5827 5827 5827 5828 5828 5827 5827 5826 5825 5824 5822 5821 5820 5818 5817 5816 5814 5812 5810 5809 5807 5805 5803 5802
5777 5780 5784 5787 5790 5793 5796 5798 5801 5803 5806 5808 5810 5812 5813 5815 5816 5817 5818 5819 5819 5820 5820 5820 5820 5819 5819 5818 5817 5816 5815 5814 5812 5811 5809 5808 5806 5804 5803 5801 5799 5797 5795 5793
5768 5772 5775 5778 5781 5784 5786 5789 5792 5794 5797 5799 5801 5803 5805 5806 5807 5809 5810 5810 5811 5811 5811 5811 5811 5811 5810 5810 5809 5808 5807 5806 5804 5803 5801 5799 5798 5796 5794 5792 5791 5788 5786 5785
5759 5762 5766 5769 5772 5775 5777 5780 5782 5785 5787 5789 5792 5794 5795 5797 5798 5800 5800 5801 5802 5802 5803 5803 5803 5802 5802 5801 5801 5800 5798 5797 5796 5795 5793 5791 5789 5788 5786 5784 5782 5780 5778 5776
5750 5753 5757 5760 5763 5766 5768 5771 5773 5775 5778 5780 5782 5784 5786 5788 5789 5791 5791 5792 5793 5794 5794 5794 5794 5794 5793 5793 5792 5791 5790 5789 5788 5786 5785 5783 5781 5780 5778 5776 5774 5772 5770 5768
5741 5744 5748 5751 5754 5756 5759 5761 5764 5766 5768 5770 5773 5775 5777 5779 5780 5781 5782 5783 5784 5785 5785 5785 5785 5785 5785 5785 5784 5783 5782 5781 5780 5779 5777 5776 5774 5772 5770 5768 5766 5765 5762 5760
5733 5736 5739 5742 5745 5748 5750 5753 5755 5758 5760 5762 5764 5766 5768 5770 5771 5773 5774 5775 5775 5776 5776 5777 5777 5777 5777 5776 5776 5775 5774 5773 5772 5771 5770 5768 5766 5765 5763 5761 5759 5757 5754 5752
5725 5728 5731 5734 5737 5740 5742 5745 5747 5749 5751 5753 5755 5757 5759 5761 5763 5764 5765 5767 5767 5768 5768 5769 5769 5769 5769 5768 5768 5767 5766 5765 5764 5763 5762 5760 5759 5757 5755 5753 5751 5749 5747 5744
5718 5722 5725 5727 5730 5732 5735 5737 5740 5742 5744 5745 5747 5749 5751 5753 5755 5756 5757 5758 5759 5760 5760 5761 5761 5761 5761 5760 5759 5759 5758 5757 5757 5756 5754 5753 5752 5750 5748 5746 5744 5741 5739 5737
5713 5716 5719 5721 5723 5726 5728 5730 5732 5735 5736 5738 5740 5742 5744 5746 5748 5749 5750 5751 5752 5752 5753 5753 5753 5753 5753 5752 5752 5751 5751 5750 5749 5748 5747 5746 5744 5742 5740 5738 5736 5734 5732 5729
5708 5710 5713 5715 5718 5720 5722 5724 5726 5728 5730 5732 5734 5736 5738 5740 5741 5743 5744 5744 5745 5745 5746 5746 5746 5746 5746 5745 5745 5745 5744 5743 5742 5741 5740 5738 5736 5735 5733 5731 5729 5727 5725 5722
5703 5706 5708 5711 5713 5715 5717 5719 5721 5723 5725 5727 5729 5731 5733 5734 5736 5737 5738 5739 5739 5740 5740 5740 5740 5740 5740 5739 5739 5738 5737 5737 5735 5734 5732 5731 5729 5728 5726 5724 5722 5720 5718 5715
5699 5702 5704 5707 5709 5711 5713 5715 5717 5719 5721 5723 5724 5726 5728 5729 5731 5732 5733 5733 5734 5734 5734 5734 5734 5734 5734 5733 5733 5732 5731 5730 5729 5727 5726 5724 5722 5720 5719 5717 5715 5713 5710 5708
5696 5698 5701 5703 5705 5708 5710 5712 5714 5715 5717 5718 5720 5722 5723 5725 5726 5727 5727 5728 5728 5729 5729 5729 5729 5728 5728 5727 5727 5726 5725 5723 5722 5720 5719 5717 5716 5714 5712 5710 5708 5706 5703 5701
5694 5696 5698 5701 5703 5705 5707 5709 5711 5712 5714 5715 5717 5718 5719 5720 5721 5722 5722 5723 5723 5724 5724 5724 5723 5723 5722 5722 5721 5720 5719 5717 5716 5714 5713 5711 5709 5707 5705 5703 5701 5699 5696 5694
5693 5695 5697 5699 5701 5703 5705 5707 5708 5710 5711 5712 5713 5714 5715 5716 5717 5717 5718 5718 5719 5719 5719 5719 5718 5718 5717 5716 5715 5714 5713 5711 5710 5708 5706 5704 5702 5700 5698 5696 5694 5691 5689 5686